Hovedside
METAR-TAF:

METAR-TAF

Lufthavner :

Kairo, Egypt

breddegrad: 30-08N, lengdegrad: 031-24E, høyde over havet: 64 m

Gjeldene værobservasjon

Denne rapporten ble laget for 18 minutter siden, klokken 11:00 UTC
Vind 13 kt fra Nord
Temperatur 33°C
Luftfuktighet 41%
Trykk 1009 hPa
Sikt 10 km eller mer
ingen skyer under 1500 m og ingen bygeskyer

METAR: HECA 201100Z 36013KT CAVOK 33/18 Q1009 NOSIG

Tid: 13:18 (11:18 UTC)

Varsel

Denne rapporten ble laget for 6 timer og 18 minutter siden, klokken 05:00 UTC
Varsel gyldig fra 20. klokken 06 UTC til 21. klokken 12 UTC
Vind 12 kt fra Nordøst
Sikt 10 km eller mer
Spredte skyer i en høyde av 2500 ft

TAF: HECA 200500Z 2006/2112 04012KT 9999 SCT025

Værobservasjoner og værvarsel for over 4000 flyplasser (METAR- og TAF-rapporter).

Tilgjengelige stasjoner er representert av de røde og gule prikkene på kartet.

Hold musepekeren over prikken for å se navnet på stasjonen.

Klikk så for å se værobservasjoner og -varsler.

For å forandre kartet kan du klikke på den grønne knappen med svart kryss for å zoome inn, på den grønne knappen med strek for å zoome ut, eller på de grønne pilene for å se tilstøtende kart.


METAR-TAF: